This demonstration page uses our WeatherBlox Daily Observations layout. Learn more.

38.88101, -77.10428

Hourly Observations for December 21, 2018

Temp ( °F °C ) Dew Point ( °F °C ) Humidity (%) Winds ( mph kmh ) Pressure ( in mb ) Visibility ( mi km ) Precip ( " mm )
12:17 am 00:17 Cloudy 62 16.7 59 15 90 90 SE 20 31 29.44 997 10 16.0934 0 0.0254
12:44 am 00:44 Cloudy with Light Rain 62 16.7 59 15 90 90 SSE 18 30 29.44 997 10 16.0934 0.01 0.254
12:52 am 00:52 Cloudy 62 16.7 59 15 90 90 SSE 16 26 29.45 997 10 16.0934 0.01 0.254
1:52 am 01:52 Cloudy 62 16.7 59 15 90 90 SSE 14 22 29.44 997 10 16.0934 0 0.0254
2:52 am 02:52 Cloudy 61 16.1 58 14.4 90 90 S 12 19 29.43 997 10 16.0934 0.01 0.254
3:52 am 03:52 Cloudy with Light Rain 61 16.1 58 14.4 90 90 S 9 15 29.4 996 10 16.0934 0 0.0254
4:52 am 04:52 Cloudy 61 16.1 59 15 93 93 S 10 17 29.38 995 10 16.0934 0.02 0.508
5:52 am 05:52 Cloudy 61 16.1 58 14.4 90 90 S 14 22 29.4 996 10 16.0934 0 0.0254
6:19 am 06:19 Cloudy with Light Rain 61 16.1 58 14.4 90 90 S 12 19 29.38 995 10 16.0934 0.01 0.254
6:52 am 06:52 Cloudy 61 16.1 58 14.4 90 90 S 12 19 29.4 996 10 16.0934 0.01 0.254
7:12 am 07:12 Cloudy with Light Rain 60 15.6 58 14.4 93 93 S 12 19 29.38 995 10 16.0934 0.01 0.254
7:52 am 07:52 Cloudy with Light Rain 63 17.2 59 15 87 87 SSE 14 22 29.36 994 10 16.0934 0.02 0.508
8:21 am 08:21 Mostly Cloudy 62 16.7 59 15 90 90 S 8 13 29.35 994 10 16.0934 0 0.0254
8:52 am 08:52 Cloudy 62 16.7 58 14.4 86 86 S 10 17 29.36 994 10 16.0934 0 0.0254
9:52 am 09:52 Cloudy 61 16.1 57 13.9 87 87 S 12 19 29.36 994 10 16.0934 0 0
10:52 am 10:52 Cloudy 61 16.1 56 13.3 84 84 S 13 20 29.34 993 10 16.0934 0 0
11:31 am 11:31 Mostly Cloudy 61 16.1 56 13.3 84 84 S 13 20 29.29 992 10 16.0934 0 0
11:52 am 11:52 Mostly Cloudy 63 17.2 56 13.3 78 78 S 9 15 29.28 992 10 16.0934 0 0
12:44 pm 12:44 Mostly Cloudy 64 17.8 56 13.3 75 75 S 14 22 29.26 991 10 16.0934 0 0
12:52 pm 12:52 Mostly Cloudy 64 17.8 55 12.8 73 73 S 12 19 29.24 990 10 16.0934 0 0
1:08 pm 13:08 Mostly Cloudy 63 17.2 55 12.8 76 76 S 14 22 29.23 990 10 16.0934 0 0
1:52 pm 13:52 Mostly Cloudy 65 18.3 54 12.2 68 68 S 15 24 29.21 989 10 16.0934 0 0
3:22 pm 15:22 Mostly Cloudy with Light Rain 62 16.7 56 13.3 80 80 SE 14 22 29.18 988 5 8.0467 0.03 0.762
3:47 pm 15:47 Mostly Cloudy 61 16 55 13 83 83 S 9 15 29.18 988 10 16.0934 0.08 2.032
3:52 pm 15:52 Mostly Cloudy 60 15.6 56 13.3 86 86 SSE 10 17 29.18 988 10 16.0934 0.08 2.032
4:52 pm 16:52 Mostly Cloudy 59 15 55 12.8 87 87 S 10 17 29.18 988 10 16.0934 0 0
5:52 pm 17:52 Mostly Cloudy 60 15.6 54 12.2 80 80 SSW 12 19 29.2 989 10 16.0934 0 0
6:52 pm 18:52 Mostly Cloudy 54 12.2 50 10 87 87 S 6 9 29.2 989 10 16.0934 0 0.0254
7:52 pm 19:52 Mostly Cloudy 58 14.4 53 11.7 84 84 WSW 5 7 29.2 989 10 16.0934 0 0.0254
8:52 pm 20:52 Mostly Cloudy 53 11.7 46 7.8 77 77 S 7 11 29.21 989 10 16.0934 0 0
9:52 pm 21:52 Mostly Cloudy 53 11.7 48 8.9 83 83 S 9 15 29.22 990 10 16.0934 0 0
10:52 pm 22:52 Cloudy 53 11.7 43 6.1 69 69 WNW 20 31 29.26 991 10 16.0934 0 0
11:01 pm 23:01 Cloudy with Light Rain 51 10.6 42 5.6 71 71 WNW 16 26 29.26 991 10 16.0934 0 0.0254
11:29 pm 23:29 Cloudy with Light Rain 48 8.9 40 4.4 74 74 WNW 13 20 29.29 992 9 14.48406 0.01 0.254
11:52 pm 23:52 Cloudy with Light Rain 47 8.3 39 3.9 74 74 WNW 21 33 29.31 992 10 16.0934 0.02 0.508

Powered by AerisWeather